| time (UTC) | temp F | wind direction | speed MPH | gust MPH | rain 1hr in | rain 24hr in | rain mn in | humidity % | barometer mb |
| 20260905211511 | 82 | 46 | 1.0 | 2.0 | 0.00 | 0.84 | 0.84 | 78 | 1012.6 |
| 20260905211007 | 82 | 32 | 1.0 | 3.0 | 0.00 | 0.84 | 0.84 | 77 | 1012.8 |
| 20260905210511 | 83 | 64 | 1.0 | 3.0 | 0.00 | 0.84 | 0.84 | 78 | 1012.8 |
| 20260905210019 | 83 | 64 | 1.0 | 6.0 | 0.00 | 0.84 | 0.84 | 78 | 1012.8 |
| 20260905205511 | 83 | 42 | 1.0 | 6.0 | 0.00 | 0.84 | 0.84 | 78 | 1012.9 |
| 20260905205012 | 82 | 10 | 0.0 | 2.0 | 0.00 | 0.84 | 0.84 | 79 | 1012.9 |
| 20260905204527 | 82 | 29 | 1.0 | 3.0 | 0.00 | 0.84 | 0.84 | 80 | 1013.0 |
| 20260905204015 | 81 | 53 | 1.0 | 3.0 | 0.00 | 0.84 | 0.84 | 80 | 1013.1 |
| 20260905203514 | 81 | 59 | 1.0 | 3.0 | 0.00 | 0.84 | 0.84 | 81 | 1013.2 |
| 20260905203006 | 81 | 50 | 1.0 | 1.0 | 0.00 | 0.84 | 0.84 | 80 | 1013.3 |
| 20260905202503 | 81 | 49 | 1.0 | 2.0 | 0.00 | 0.84 | 0.84 | 79 | 1013.3 |
| 20260905202004 | 81 | 56 | 0.0 | 2.0 | 0.00 | 0.84 | 0.84 | 81 | 1013.3 |
| 20260905201509 | 82 | 56 | 0.0 | 2.0 | 0.00 | 0.84 | 0.84 | 79 | 1013.3 |
| 20260905201010 | 82 | 56 | 0.0 | 2.0 | 0.00 | 0.84 | 0.84 | 79 | 1013.3 |
| 20260905200507 | 82 | 352 | 0.0 | 4.0 | 0.00 | 0.84 | 0.84 | 78 | 1013.2 |
| 20260905200021 | 83 | 352 | 0.0 | 5.0 | 0.00 | 0.84 | 0.84 | 75 | 1013.2 |
| 20260905195510 | 83 | 350 | 2.0 | 8.0 | 0.00 | 0.84 | 0.84 | 73 | 1013.3 |
| 20260905195015 | 83 | 339 | 2.0 | 8.0 | 0.00 | 0.84 | 0.84 | 74 | 1013.3 |
| 20260905194527 | 83 | 344 | 2.0 | 6.0 | 0.00 | 0.84 | 0.84 | 74 | 1013.4 |
| 20260905194013 | 83 | 351 | 0.0 | 6.0 | 0.00 | 0.84 | 0.84 | 74 | 1013.4 |
| 20260905193513 | 84 | 345 | 4.0 | 6.0 | 0.00 | 0.84 | 0.84 | 72 | 1013.4 |
| 20260905193029 | 84 | 306 | 0.0 | 5.0 | 0.00 | 0.84 | 0.84 | 71 | 1013.5 |
| 20260905192514 | 84 | 352 | 1.0 | 5.0 | 0.00 | 0.84 | 0.84 | 72 | 1013.6 |
| 20260905192004 | 85 | 65 | 1.0 | 4.0 | 0.00 | 0.84 | 0.84 | 74 | 1013.6 |
| 20260905191508 | 85 | 348 | 1.0 | 4.0 | 0.00 | 0.84 | 0.84 | 74 | 1013.6 |
| 20260905191006 | 84 | 297 | 2.0 | 5.0 | 0.00 | 0.84 | 0.84 | 71 | 1013.6 |
| 20260905190508 | 84 | 301 | 1.0 | 5.0 | 0.00 | 0.84 | 0.84 | 71 | 1013.7 |
| 20260905190013 | 84 | 326 | 2.0 | 6.0 | 0.00 | 0.84 | 0.84 | 72 | 1013.8 |
| 20260905185509 | 84 | 257 | 3.0 | 6.0 | 0.00 | 0.84 | 0.84 | 72 | 1013.9 |
| 20260905185010 | 84 | 10 | 1.0 | 6.0 | 0.00 | 0.84 | 0.84 | 73 | 1013.9 |
| 20260905184523 | 84 | 324 | 2.0 | 5.0 | 0.00 | 0.84 | 0.84 | 71 | 1014.0 |
| 20260905184012 | 84 | 238 | 2.0 | 5.0 | 0.00 | 0.84 | 0.84 | 73 | 1014.0 |
| 20260905183513 | 84 | 273 | 1.0 | 6.0 | 0.00 | 0.84 | 0.84 | 74 | 1014.0 |
| 20260905183032 | 83 | 284 | 2.0 | 8.0 | 0.00 | 0.84 | 0.84 | 73 | 1014.0 |
| 20260905182515 | 83 | 234 | 3.0 | 8.0 | 0.00 | 0.84 | 0.84 | 72 | 1014.1 |
| 20260905182014 | 83 | 277 | 2.0 | 7.0 | 0.00 | 0.84 | 0.84 | 75 | 1014.1 |
| 20260905181543 | 83 | 334 | 3.0 | 7.0 | 0.00 | 0.84 | 0.84 | 73 | 1014.2 |
| 20260905181004 | 83 | 290 | 3.0 | 7.0 | 0.00 | 0.84 | 0.84 | 74 | 1014.2 |
| 20260905180504 | 82 | 329 | 1.0 | 6.0 | 0.00 | 0.84 | 0.84 | 76 | 1014.1 |
| 20260905180014 | 82 | 197 | 2.0 | 6.0 | 0.00 | 0.84 | 0.84 | 75 | 1014.2 |
| 20260905175508 | 81 | 275 | 2.0 | 6.0 | 0.00 | 0.84 | 0.84 | 77 | 1014.1 |
| 20260905175008 | 81 | 246 | 2.0 | 6.0 | 0.00 | 0.84 | 0.84 | 75 | 1014.2 |
| 20260905174524 | 81 | 254 | 1.0 | 5.0 | 0.00 | 0.84 | 0.84 | 73 | 1014.3 |
| 20260905174015 | 82 | 344 | 1.0 | 5.0 | 0.00 | 0.84 | 0.84 | 73 | 1014.4 |
| 20260905173512 | 82 | 315 | 3.0 | 5.0 | 0.00 | 0.84 | 0.84 | 74 | 1014.4 |
| 20260905173031 | 81 | 314 | 3.0 | 8.0 | 0.00 | 0.84 | 0.84 | 75 | 1014.4 |
| 20260905172513 | 81 | 319 | 2.0 | 8.0 | 0.00 | 0.84 | 0.84 | 75 | 1014.4 |
| 20260905172016 | 80 | 313 | 4.0 | 7.0 | 0.00 | 0.84 | 0.84 | 77 | 1014.5 |
| 20260905171538 | 80 | 306 | 3.0 | 7.0 | 0.00 | 0.84 | 0.84 | 78 | 1014.4 |
| 20260905171015 | 79 | 351 | 3.0 | 8.0 | 0.00 | 0.84 | 0.84 | 76 | 1014.3 |
| 20260905170517 | 79 | 342 | 5.0 | 8.0 | 0.00 | 0.84 | 0.84 | 76 | 1014.5 |
| 20260905170012 | 79 | 344 | 4.0 | 8.0 | 0.00 | 0.84 | 0.84 | 76 | 1014.4 |
| 20260905165503 | 79 | 332 | 2.0 | 6.0 | 0.00 | 0.84 | 0.84 | 78 | 1014.4 |
| 20260905165012 | 78 | 344 | 4.0 | 9.0 | 0.00 | 0.84 | 0.84 | 77 | 1014.6 |
| 20260905164516 | 78 | 334 | 5.0 | 9.0 | 0.00 | 0.84 | 0.84 | 77 | 1014.7 |
| 20260905164009 | 78 | 344 | 5.0 | 7.0 | 0.00 | 0.84 | 0.84 | 78 | 1014.6 |
| 20260905163510 | 77 | 348 | 3.0 | 6.0 | 0.00 | 0.84 | 0.84 | 82 | 1014.6 |
| 20260905163024 | 76 | 336 | 2.0 | 6.0 | 0.00 | 0.84 | 0.84 | 82 | 1014.5 |
| 20260905162516 | 75 | 202 | 1.0 | 7.0 | 0.00 | 0.84 | 0.84 | 86 | 1014.5 |
| 20260905162014 | 75 | 252 | 3.0 | 7.0 | 0.00 | 0.84 | 0.84 | 86 | 1014.5 |
| 20260905161529 | 74 | 336 | 4.0 | 6.0 | 0.00 | 0.84 | 0.84 | 91 | 1014.6 |
| 20260905161015 | 72 | 236 | 3.0 | 4.0 | 0.00 | 0.84 | 0.84 | 91 | 1014.6 |
| 20260905160517 | 71 | 210 | 0.0 | 4.0 | 0.00 | 0.84 | 0.84 | 90 | 1014.6 |
| 20260905160053 | 71 | 250 | 0.0 | 2.0 | 0.00 | 0.84 | 0.84 | 92 | 1014.5 |
| 20260905155514 | 70 | 70 | 0.0 | 2.0 | 0.00 | 0.84 | 0.84 | 92 | 1014.4 |
| 20260905155006 | 70 | 70 | 0.0 | 3.0 | 0.01 | 0.84 | 0.84 | 92 | 1014.3 |
| 20260905154512 | 70 | 170 | 1.0 | 5.0 | 0.01 | 0.84 | 0.84 | 92 | 1014.8 |
| 20260905154008 | 70 | 242 | 1.0 | 5.0 | 0.01 | 0.84 | 0.84 | 92 | 1014.8 |
| 20260905153508 | 70 | 155 | 2.0 | 4.0 | 0.01 | 0.84 | 0.84 | 92 | 1015.2 |
| 20260905153022 | 70 | 236 | 2.0 | 4.0 | 0.01 | 0.84 | 0.84 | 92 | 1015.2 |
| 20260905152511 | 70 | 348 | 1.0 | 4.0 | 0.02 | 0.84 | 0.84 | 92 | 1015.1 |
| 20260905152013 | 70 | 269 | 0.0 | 4.0 | 0.02 | 0.84 | 0.84 | 91 | 1015.1 |
| 20260905151533 | 70 | 211 | 1.0 | 4.0 | 0.02 | 0.84 | 0.84 | 91 | 1014.8 |
| 20260905151013 | 70 | 325 | 2.0 | 6.0 | 0.02 | 0.84 | 0.84 | 91 | 1015.0 |
| 20260905150514 | 70 | 344 | 3.0 | 6.0 | 0.03 | 0.84 | 0.84 | 91 | 1015.0 |
| 20260905150034 | 70 | 346 | 3.0 | 6.0 | 0.03 | 0.84 | 0.84 | 91 | 1015.1 |
| 20260905145517 | 70 | 338 | 4.0 | 6.0 | 0.03 | 0.84 | 0.84 | 91 | 1015.2 |
| 20260905145021 | 70 | 317 | 2.0 | 3.0 | 0.02 | 0.83 | 0.83 | 91 | 1014.9 |
| 20260905144532 | 70 | 342 | 0.0 | 2.0 | 0.02 | 0.83 | 0.83 | 91 | 1014.5 |
| 20260905144007 | 70 | 214 | 0.0 | 2.0 | 0.02 | 0.83 | 0.83 | 90 | 1014.4 |
| 20260905143508 | 70 | 214 | 0.0 | 5.0 | 0.02 | 0.83 | 0.83 | 90 | 1014.3 |
| 20260905143017 | 71 | 215 | 1.0 | 13.0 | 0.02 | 0.83 | 0.83 | 89 | 1014.2 |
| 20260905142508 | 71 | 345 | 5.0 | 13.0 | 0.01 | 0.82 | 0.82 | 89 | 1014.5 |
| 20260905142011 | 71 | 342 | 3.0 | 8.0 | 0.01 | 0.82 | 0.82 | 89 | 1014.4 |
| 20260905141523 | 71 | 334 | 1.0 | 2.0 | 0.01 | 0.82 | 0.82 | 88 | 1014.3 |
| 20260905141013 | 71 | 202 | 0.0 | 2.0 | 0.01 | 0.82 | 0.82 | 88 | 1014.1 |
| 20260905140514 | 71 | 206 | 1.0 | 3.0 | 0.00 | 0.81 | 0.81 | 88 | 1014.0 |
| 20260905140031 | 71 | 227 | 1.0 | 4.0 | 0.00 | 0.81 | 0.81 | 89 | 1014.3 |
| 20260905135513 | 71 | 190 | 0.0 | 5.0 | 0.00 | 0.81 | 0.81 | 88 | 1014.2 |
| 20260905135018 | 71 | 205 | 2.0 | 6.0 | 0.00 | 0.81 | 0.81 | 88 | 1014.1 |
| 20260905134535 | 71 | 214 | 2.0 | 7.0 | 0.00 | 0.81 | 0.81 | 87 | 1014.1 |
| 20260905134019 | 71 | 192 | 1.0 | 7.0 | 0.00 | 0.81 | 0.81 | 88 | 1013.8 |
| 20260905133517 | 72 | 173 | 1.0 | 7.0 | 0.00 | 0.81 | 0.81 | 88 | 1013.9 |
| 20260905133015 | 71 | 208 | 3.0 | 7.0 | 0.00 | 0.81 | 0.81 | 89 | 1014.0 |
| 20260905132510 | 71 | 140 | 3.0 | 7.0 | 0.00 | 0.81 | 0.81 | 89 | 1014.0 |
| 20260905132010 | 70 | 153 | 1.0 | 7.0 | 0.00 | 0.81 | 0.81 | 90 | 1014.0 |
| 20260905131523 | 70 | 144 | 1.0 | 5.0 | 0.01 | 0.81 | 0.81 | 90 | 1014.1 |
| 20260905131016 | 69 | 180 | 2.0 | 5.0 | 0.03 | 0.81 | 0.81 | 92 | 1014.0 |
| 20260905130512 | 68 | 190 | 1.0 | 5.0 | 0.03 | 0.81 | 0.81 | 92 | 1013.9 |
| 20260905130028 | 68 | 162 | 2.0 | 4.0 | 0.03 | 0.81 | 0.81 | 92 | 1014.1 |
| 20260905125515 | 68 | 154 | 1.0 | 6.0 | 0.03 | 0.81 | 0.81 | 92 | 1014.3 |
| 20260905125014 | 68 | 146 | 4.0 | 6.0 | 0.03 | 0.81 | 0.81 | 92 | 1014.6 |
| 20260905124538 | 67 | 129 | 2.0 | 3.0 | 0.03 | 0.81 | 0.81 | 92 | 1014.7 |
| 20260905124015 | 67 | 129 | 0.0 | 7.0 | 0.03 | 0.81 | 0.81 | 92 | 1014.8 |
| 20260905123516 | 67 | 100 | 1.0 | 7.0 | 0.03 | 0.81 | 0.81 | 91 | 1014.9 |
| 20260905123033 | 67 | 144 | 4.0 | 7.0 | 0.03 | 0.81 | 0.81 | 91 | 1014.9 |
| 20260905122517 | 67 | 112 | 3.0 | 6.0 | 0.03 | 0.81 | 0.81 | 91 | 1014.9 |
| 20260905122009 | 67 | 180 | 2.0 | 5.0 | 0.03 | 0.81 | 0.81 | 91 | 1014.9 |
| 20260905121521 | 67 | 172 | 2.0 | 5.0 | 0.02 | 0.80 | 0.80 | 91 | 1015.3 |
| 20260905121011 | 67 | 332 | 2.0 | 4.0 | 0.00 | 0.78 | 0.78 | 91 | 1015.5 |
| 20260905120511 | 67 | 57 | 2.0 | 6.0 | 0.01 | 0.78 | 0.78 | 92 | 1014.8 |
| 20260905120027 | 67 | 105 | 3.0 | 6.0 | 0.01 | 0.78 | 0.78 | 91 | 1014.8 |
| 20260905115514 | 67 | 63 | 3.0 | 5.0 | 0.01 | 0.78 | 0.78 | 92 | 1015.3 |
| 20260905115015 | 67 | 79 | 1.0 | 7.0 | 0.01 | 0.78 | 0.78 | 92 | 1015.1 |
| 20260905114529 | 67 | 102 | 1.0 | 7.0 | 0.01 | 0.78 | 0.78 | 93 | 1014.8 |
| 20260905114005 | 67 | 144 | 3.0 | 5.0 | 0.01 | 0.78 | 0.78 | 93 | 1014.8 |
| 20260905113503 | 67 | 88 | 2.0 | 4.0 | 0.04 | 0.78 | 0.78 | 93 | 1015.1 |
| 20260905113010 | 67 | 71 | 2.0 | 2.0 | 0.19 | 0.78 | 0.78 | 93 | 1015.1 |
| 20260905112506 | 67 | 67 | 2.0 | 2.0 | 0.29 | 0.78 | 0.78 | 93 | 1015.2 |
| 20260905112007 | 67 | 96 | 2.0 | 2.0 | 0.30 | 0.78 | 0.78 | 93 | 1015.3 |
| 20260905111516 | 67 | 79 | 0.0 | 4.0 | 0.33 | 0.78 | 0.78 | 93 | 1015.2 |
| 20260905111011 | 67 | 79 | 1.0 | 4.0 | 0.39 | 0.78 | 0.78 | 93 | 1015.0 |
| 20260905110510 | 67 | 146 | 3.0 | 4.0 | 0.46 | 0.77 | 0.77 | 93 | 1014.8 |
| 20260905110023 | 67 | 128 | 2.0 | 4.0 | 0.50 | 0.77 | 0.77 | 93 | 1014.6 |
| 20260905105502 | 67 | 123 | 1.0 | 5.0 | 0.52 | 0.77 | 0.77 | 93 | 1014.5 |
| 20260905105002 | 67 | 105 | 2.0 | 8.0 | 0.55 | 0.77 | 0.77 | 93 | 1014.7 |
| 20260905104511 | 67 | 61 | 4.0 | 10.0 | 0.57 | 0.77 | 0.77 | 93 | 1014.8 |
| 20260905104002 | 67 | 55 | 2.0 | 11.0 | 0.60 | 0.77 | 0.77 | 93 | 1015.2 |
| 20260905103505 | 66 | 80 | 6.0 | 12.0 | 0.61 | 0.74 | 0.74 | 92 | 1015.4 |
| 20260905103017 | 66 | 56 | 8.0 | 12.0 | 0.46 | 0.58 | 0.58 | 92 | 1015.1 |
| 20260905102505 | 66 | 79 | 6.0 | 12.0 | 0.37 | 0.49 | 0.49 | 92 | 1015.5 |
| 20260905102005 | 66 | 64 | 6.0 | 12.0 | 0.37 | 0.48 | 0.48 | 92 | 1015.4 |
| 20260905101516 | 66 | 74 | 7.0 | 10.0 | 0.36 | 0.45 | 0.45 | 92 | 1015.3 |
| 20260905101008 | 66 | 64 | 6.0 | 10.0 | 0.31 | 0.39 | 0.39 | 91 | 1015.8 |
| 20260905100510 | 67 | 59 | 4.0 | 10.0 | 0.27 | 0.31 | 0.31 | 91 | 1016.0 |
| 20260905100019 | 67 | 53 | 2.0 | 11.0 | 0.27 | 0.27 | 0.27 | 91 | 1016.3 |
| 20260905095510 | 67 | 65 | 5.0 | 11.0 | 0.24 | 0.24 | 0.24 | 91 | 1015.8 |
| 20260905095011 | 67 | 78 | 2.0 | 7.0 | 0.22 | 0.22 | 0.22 | 92 | 1016.0 |
| 20260905094534 | 67 | 60 | 2.0 | 3.0 | 0.20 | 0.20 | 0.20 | 91 | 1016.1 |
| 20260905094002 | 67 | 56 | 2.0 | 4.0 | 0.17 | 0.17 | 0.17 | 91 | 1016.2 |
| 20260905093502 | 67 | 37 | 2.0 | 11.0 | 0.13 | 0.13 | 0.13 | 91 | 1016.1 |
| 20260905093008 | 67 | 62 | 5.0 | 11.0 | 0.13 | 0.13 | 0.13 | 91 | 1015.6 |
| 20260905092503 | 67 | 68 | 5.0 | 11.0 | 0.12 | 0.12 | 0.12 | 91 | 1015.6 |
| 20260905092003 | 67 | 56 | 6.0 | 11.0 | 0.11 | 0.11 | 0.11 | 91 | 1015.9 |
| 20260905091529 | 67 | 95 | 6.0 | 10.0 | 0.09 | 0.09 | 0.09 | 91 | 1015.9 |
| 20260905091007 | 67 | 74 | 5.0 | 10.0 | 0.08 | 0.08 | 0.08 | 91 | 1016.1 |
| 20260905090506 | 67 | 38 | 3.0 | 9.0 | 0.04 | 0.04 | 0.04 | 90 | 1016.4 |
| 20260905090015 | 67 | 45 | 3.0 | 12.0 | 0.00 | 0.00 | 0.00 | 90 | 1016.9 |
| 20260905085512 | 68 | 59 | 6.0 | 19.0 | 0.00 | 0.00 | 0.00 | 88 | 1016.6 |
| 20260905085010 | 69 | 76 | 5.0 | 19.0 | 0.00 | 0.00 | 0.00 | 85 | 1016.8 |
| 20260905084526 | 70 | 74 | 7.0 | 20.0 | 0.00 | 0.00 | 0.00 | 82 | 1016.8 |
| 20260905084013 | 70 | 44 | 7.0 | 20.0 | 0.00 | 0.00 | 0.00 | 80 | 1016.7 |
| 20260905083514 | 70 | 57 | 7.0 | 19.0 | 0.00 | 0.00 | 0.00 | 80 | 1016.5 |
| 20260905083004 | 71 | 55 | 8.0 | 19.0 | 0.00 | 0.00 | 0.00 | 80 | 1016.4 |
| 20260905082503 | 71 | 58 | 5.0 | 15.0 | 0.00 | 0.00 | 0.00 | 80 | 1016.5 |
| 20260905082004 | 72 | 47 | 8.0 | 21.0 | 0.00 | 0.00 | 0.00 | 81 | 1016.1 |
| 20260905081511 | 73 | 59 | 7.0 | 21.0 | 0.00 | 0.00 | 0.00 | 84 | 1015.8 |
| 20260905081008 | 72 | 54 | 5.0 | 10.0 | 0.00 | 0.00 | 0.00 | 91 | 1015.7 |
| 20260905080503 | 71 | 74 | 4.0 | 8.0 | 0.00 | 0.00 | 0.00 | 92 | 1015.2 |
| 20260905080014 | 71 | 63 | 1.0 | 2.0 | 0.00 | 0.00 | 0.00 | 92 | 1014.3 |
| 20260905075510 | 71 | 63 | 1.0 | 2.0 | 0.00 | 0.00 | 0.00 | 92 | 1014.1 |
| 20260905075009 | 71 | 63 | 1.0 | 2.0 | 0.00 | 0.00 | 0.00 | 91 | 1013.9 |
| 20260905074524 | 71 | 66 | 1.0 | 3.0 | 0.00 | 0.00 | 0.00 | 90 | 1013.9 |
| 20260905074013 | 72 | 65 | 2.0 | 3.0 | 0.00 | 0.00 | 0.00 | 90 | 1013.7 |
| 20260905073511 | 72 | 207 | 0.0 | 2.0 | 0.00 | 0.00 | 0.00 | 91 | 1013.5 |
| 20260905073030 | 72 | 207 | 0.0 | 2.0 | 0.00 | 0.00 | 0.00 | 91 | 1013.4 |
| 20260905072517 | 72 | 207 | 0.0 | 2.0 | 0.00 | 0.00 | 0.00 | 91 | 1013.3 |
| 20260905072003 | 72 | 207 | 0.0 | 0.0 | 0.00 | 0.00 | 0.00 | 90 | 1013.3 |
| 20260905071515 | 72 | 207 | 0.0 | 0.0 | 0.00 | 0.00 | 0.00 | 90 | 1013.2 |
| 20260905071004 | 72 | 207 | 0.0 | 1.0 | 0.00 | 0.00 | 0.00 | 90 | 1013.1 |
| 20260905070503 | 72 | 207 | 0.0 | 1.0 | 0.00 | 0.00 | 0.00 | 90 | 1013.1 |
| 20260905070021 | 72 | 207 | 0.0 | 0.0 | 0.00 | 0.00 | 0.00 | 90 | 1012.9 |
| 20260905065508 | 72 | 207 | 0.0 | 0.0 | 0.00 | 0.00 | 0.00 | 90 | 1012.8 |
| 20260905065008 | 72 | 207 | 0.0 | 2.0 | 0.00 | 0.00 | 0.00 | 90 | 1012.7 |
| 20260905064524 | 72 | 207 | 0.0 | 2.0 | 0.00 | 0.00 | 0.00 | 90 | 1012.9 |
| 20260905064014 | 73 | 207 | 0.0 | 2.0 | 0.00 | 0.00 | 0.00 | 89 | 1012.8 |
| 20260905063512 | 73 | 207 | 1.0 | 2.0 | 0.00 | 0.00 | 0.00 | 89 | 1012.8 |
| 20260905063027 | 73 | 190 | 0.0 | 1.0 | 0.00 | 0.00 | 0.00 | 89 | 1012.9 |
| 20260905062518 | 73 | 190 | 0.0 | 2.0 | 0.00 | 0.00 | 0.00 | 89 | 1012.9 |
| 20260905062015 | 73 | 190 | 0.0 | 2.0 | 0.00 | 0.00 | 0.00 | 89 | 1013.1 |
| 20260905061532 | 73 | 188 | 0.0 | 2.0 | 0.00 | 0.00 | 0.00 | 89 | 1013.1 |
| 20260905061012 | 73 | 171 | 0.0 | 2.0 | 0.00 | 0.00 | 0.00 | 89 | 1013.1 |
| 20260905060508 | 73 | 161 | 0.0 | 2.0 | 0.00 | 0.00 | 0.00 | 89 | 1013.2 |
| 20260905060013 | 73 | 158 | 0.0 | 2.0 | 0.00 | 0.00 | 0.00 | 89 | 1013.4 |
| 20260905055505 | 73 | 158 | 0.0 | 2.0 | 0.00 | 0.00 | 0.00 | 89 | 1013.4 |
| 20260905055009 | 73 | 158 | 0.0 | 1.0 | 0.00 | 0.00 | 0.00 | 89 | 1013.6 |
| 20260905054518 | 73 | 158 | 1.0 | 2.0 | 0.00 | 0.00 | 0.00 | 90 | 1013.7 |
| 20260905054008 | 73 | 158 | 1.0 | 2.0 | 0.00 | 0.00 | 0.00 | 90 | 1013.8 |
| 20260905053512 | 73 | 198 | 0.0 | 3.0 | 0.00 | 0.00 | 0.00 | 90 | 1013.8 |
| 20260905053022 | 74 | 183 | 1.0 | 3.0 | 0.00 | 0.00 | 0.00 | 90 | 1013.9 |
| 20260905052516 | 74 | 190 | 0.0 | 2.0 | 0.00 | 0.00 | 0.00 | 90 | 1014.0 |
| 20260905052016 | 74 | 125 | 0.0 | 2.0 | 0.00 | 0.00 | 0.00 | 90 | 1014.1 |
| 20260905051537 | 74 | 126 | 0.0 | 2.0 | 0.00 | 0.00 | 0.00 | 90 | 1014.2 |
| 20260905051017 | 73 | 125 | 1.0 | 2.0 | 0.00 | 0.00 | 0.00 | 90 | 1014.2 |
| 20260905050517 | 73 | 125 | 1.0 | 2.0 | 0.00 | 0.00 | 0.00 | 90 | 1014.2 |
| 20260905050010 | 74 | 125 | 1.0 | 2.0 | 0.00 | 0.00 | 0.00 | 90 | 1014.3 |
| 20260905045505 | 74 | 125 | 1.0 | 2.0 | 0.00 | 0.00 | 0.00 | 90 | 1014.3 |
| 20260905045006 | 74 | 82 | 0.0 | 2.0 | 0.00 | 0.00 | 0.00 | 90 | 1014.3 |
| 20260905044518 | 74 | 82 | 0.0 | 1.0 | 0.00 | 0.00 | 0.00 | 90 | 1014.4 |
| 20260905044007 | 74 | 82 | 0.0 | 1.0 | 0.00 | 0.00 | 0.00 | 90 | 1014.4 |
| 20260905043508 | 74 | 82 | 0.0 | 2.0 | 0.00 | 0.00 | 0.00 | 90 | 1014.4 |
| 20260905043027 | 74 | 82 | 0.0 | 1.0 | 0.00 | 0.00 | 0.00 | 90 | 1014.5 |
| 20260905042511 | 74 | 72 | 0.0 | 2.0 | 0.00 | 0.00 | 0.00 | 90 | 1014.6 |
| 20260905042013 | 74 | 72 | 0.0 | 2.0 | 0.00 | 0.00 | 0.00 | 89 | 1014.7 |
| 20260905041527 | 74 | 72 | 0.0 | 2.0 | 0.00 | 0.00 | 0.00 | 90 | 1014.7 |
| 20260905041018 | 74 | 72 | 0.0 | 1.0 | 0.00 | 0.00 | 0.00 | 90 | 1014.7 |
| 20260905040515 | 74 | 72 | 0.0 | 1.0 | 0.00 | 0.00 | 0.00 | 90 | 1014.7 |
| 20260905040035 | 74 | 72 | 0.0 | 2.0 | 0.00 | 0.00 | 0.00 | 90 | 1014.8 |
| 20260905035516 | 74 | 72 | 0.0 | 2.0 | 0.00 | 0.00 | 0.00 | 90 | 1014.8 |
| 20260905035005 | 74 | 72 | 0.0 | 2.0 | 0.00 | 0.00 | 0.00 | 90 | 1014.8 |
| 20260905034520 | 74 | 72 | 1.0 | 1.0 | 0.00 | 0.00 | 0.00 | 90 | 1014.8 |
| 20260905034009 | 74 | 72 | 1.0 | 2.0 | 0.00 | 0.00 | 0.00 | 1014.8 | |
| 20260905033507 | 74 | 72 | 1.0 | 2.0 | 0.00 | 0.00 | 0.00 | 89 | 1014.9 |
| 20260905033030 | 75 | 69 | 2.0 | 2.0 | 0.00 | 0.00 | 0.00 | 89 | 1014.8 |
| 20260905032510 | 75 | 70 | 0.0 | 2.0 | 0.00 | 0.00 | 0.00 | 90 | 1014.8 |
| 20260905032012 | 75 | 70 | 0.0 | 1.0 | 0.00 | 0.00 | 0.00 | 90 | 1014.8 |
| 20260905031532 | 75 | 70 | 0.0 | 2.0 | 0.00 | 0.00 | 0.00 | 90 | 1014.9 |
| 20260905031013 | 75 | 70 | 0.0 | 2.0 | 0.00 | 0.00 | 0.00 | 89 | 1014.9 |
| 20260905030514 | 75 | 70 | 0.0 | 2.0 | 0.00 | 0.00 | 0.00 | 89 | 1014.9 |
| 20260905030038 | 75 | 70 | 0.0 | 1.0 | 0.00 | 0.00 | 0.00 | 89 | 1014.9 |
| 20260905025515 | 75 | 70 | 1.0 | 1.0 | 0.00 | 0.00 | 0.00 | 89 | 1014.8 |
| 20260905025016 | 75 | 70 | 1.0 | 1.0 | 0.00 | 0.00 | 0.00 | 89 | 1014.8 |
| 20260905024534 | 75 | 70 | 1.0 | 2.0 | 0.00 | 0.00 | 0.00 | 89 | 1014.7 |
| 20260905024007 | 75 | 70 | 1.0 | 2.0 | 0.00 | 0.00 | 0.00 | 89 | 1014.8 |
| 20260905023507 | 75 | 70 | 0.0 | 2.0 | 0.00 | 0.00 | 0.00 | 89 | 1014.8 |
| 20260905023018 | 75 | 69 | 0.0 | 2.0 | 0.00 | 0.00 | 0.00 | 89 | 1014.7 |
| 20260905022508 | 75 | 69 | 1.0 | 2.0 | 0.00 | 0.00 | 0.00 | 89 | 1014.7 |
| 20260905022012 | 75 | 68 | 0.0 | 2.0 | 0.00 | 0.00 | 0.00 | 89 | 1014.6 |
| 20260905021524 | 75 | 68 | 0.0 | 3.0 | 0.00 | 0.00 | 0.00 | 88 | 1014.7 |
| 20260905021012 | 76 | 68 | 2.0 | 3.0 | 0.00 | 0.00 | 0.00 | 86 | 1014.6 |
| 20260905020516 | 76 | 167 | 0.0 | 3.0 | 0.00 | 0.00 | 0.00 | 87 | 1014.5 |
| 20260905020036 | 76 | 167 | 0.0 | 3.0 | 0.00 | 0.00 | 0.00 | 87 | 1014.3 |
| 20260905015514 | 76 | 167 | 0.0 | 2.0 | 0.00 | 0.00 | 0.00 | 87 | 1014.2 |
| 20260905015016 | 77 | 164 | 0.0 | 2.0 | 0.00 | 0.00 | 0.00 | 86 | 1014.3 |
| 20260905014536 | 77 | 164 | 0.0 | 0.0 | 0.00 | 0.00 | 0.00 | 86 | 1014.2 |
| 20260905014016 | 77 | 164 | 0.0 | 2.0 | 0.00 | 0.00 | 0.00 | 86 | 1014.1 |
| 20260905013518 | 77 | 164 | 0.0 | 2.0 | 0.00 | 0.00 | 0.00 | 86 | 1014.2 |
| 20260905013014 | 77 | 164 | 0.0 | 2.0 | 0.00 | 0.00 | 0.00 | 86 | 1014.1 |
| 20260905012506 | 77 | 164 | 0.0 | 2.0 | 0.00 | 0.00 | 0.00 | 86 | 1014.2 |
| 20260905012010 | 77 | 164 | 0.0 | 2.0 | 0.00 | 0.00 | 0.00 | 85 | 1014.2 |
| 20260905011519 | 78 | 164 | 1.0 | 2.0 | 0.00 | 0.00 | 0.00 | 85 | 1014.2 |
| 20260905011015 | 78 | 164 | 0.0 | 0.0 | 0.00 | 0.00 | 0.00 | 85 | 1014.1 |
| 20260905010511 | 78 | 164 | 0.0 | 0.0 | 0.00 | 0.00 | 0.00 | 84 | 1014.0 |
| 20260905010028 | 78 | 164 | 0.0 | 0.0 | 0.00 | 0.00 | 0.00 | 84 | 1014.1 |
| 20260905005513 | 78 | 164 | 0.0 | 0.0 | 0.00 | 0.00 | 0.00 | 84 | 1014.1 |
| 20260905005014 | 78 | 164 | 0.0 | 2.0 | 0.00 | 0.00 | 0.00 | 84 | 1014.0 |
| 20260905004539 | 78 | 164 | 0.0 | 2.0 | 0.00 | 0.00 | 0.00 | 84 | 1014.0 |
| 20260905004014 | 78 | 164 | 0.0 | 1.0 | 0.00 | 0.00 | 0.00 | 84 | 1014.0 |
| 20260905003521 | 79 | 164 | 0.0 | 1.0 | 0.00 | 0.00 | 0.00 | 84 | 1014.0 |
| 20260905003034 | 79 | 164 | 1.0 | 3.0 | 0.00 | 0.00 | 0.00 | 84 | 1014.1 |
| 20260905002517 | 79 | 164 | 1.0 | 3.0 | 0.00 | 0.00 | 0.00 | 83 | 1014.1 |
| 20260905002006 | 80 | 232 | 0.0 | 1.0 | 0.00 | 0.00 | 0.00 | 82 | 1014.1 |
| 20260905001543 | 81 | 232 | 0.0 | 1.0 | 0.00 | 0.00 | 0.00 | 81 | 1014.1 |
| 20260905001016 | 81 | 232 | 0.0 | 0.0 | 0.00 | 0.00 | 0.00 | 80 | 1014.0 |
| 20260905000511 | 81 | 232 | 0.0 | 0.0 | 0.00 | 0.00 | 0.00 | 79 | 1014.0 |
| 20260905000027 | 82 | 232 | 0.0 | 2.0 | 0.00 | 0.00 | 0.00 | 79 | 1014.0 |
| 20260904235513 | 82 | 232 | 0.0 | 2.0 | 0.00 | 0.00 | 0.00 | 78 | 1013.9 |
| 20260904235012 | 82 | 223 | 0.0 | 2.0 | 0.00 | 0.00 | 0.00 | 78 | 1013.9 |
| 20260904234537 | 82 | 223 | 1.0 | 2.0 | 0.00 | 0.00 | 0.00 | 78 | 1014.0 |
| 20260904234006 | 82 | 224 | 1.0 | 2.0 | 0.00 | 0.00 | 0.00 | 77 | 1013.9 |
| 20260904233503 | 83 | 217 | 0.0 | 2.0 | 0.00 | 0.00 | 0.00 | 76 | 1014.0 |
| 20260904233035 | 83 | 227 | 0.0 | 3.0 | 0.00 | 0.00 | 0.00 | 76 | 1014.0 |
| 20260904232507 | 83 | 220 | 1.0 | 3.0 | 0.00 | 0.00 | 0.00 | 75 | 1013.9 |
| 20260904232007 | 84 | 196 | 2.0 | 5.0 | 0.00 | 0.00 | 0.00 | 75 | 1013.9 |
| 20260904231533 | 84 | 225 | 1.0 | 5.0 | 0.00 | 0.00 | 0.00 | 74 | 1014.0 |
| 20260904231010 | 84 | 220 | 2.0 | 5.0 | 0.00 | 0.00 | 0.00 | 73 | 1013.9 |
| 20260904230511 | 84 | 184 | 2.0 | 4.0 | 0.00 | 0.00 | 0.00 | 73 | 1013.9 |
| 20260904230027 | 84 | 198 | 1.0 | 5.0 | 0.00 | 0.00 | 0.00 | 72 | 1013.9 |
| 20260904225503 | 85 | 163 | 2.0 | 5.0 | 0.00 | 0.00 | 0.00 | 71 | 1013.9 |
| 20260904225003 | 85 | 186 | 1.0 | 5.0 | 0.00 | 0.00 | 0.00 | 71 | 1013.9 |
| 20260904224506 | 85 | 183 | 3.0 | 5.0 | 0.00 | 0.00 | 0.00 | 71 | 1013.9 |
| 20260904224004 | 85 | 220 | 2.0 | 5.0 | 0.00 | 0.00 | 0.00 | 70 | 1014.1 |
| 20260904223505 | 85 | 219 | 3.0 | 5.0 | 0.00 | 0.00 | 0.00 | 69 | 1014.2 |
| 20260904223006 | 84 | 197 | 2.0 | 5.0 | 0.00 | 0.00 | 0.00 | 69 | 1014.2 |
| 20260904222503 | 84 | 211 | 2.0 | 5.0 | 0.00 | 0.00 | 0.00 | 67 | 1014.2 |
| 20260904222005 | 84 | 146 | 3.0 | 8.0 | 0.00 | 0.00 | 0.00 | 67 | 1014.2 |
| 20260904221529 | 84 | 207 | 2.0 | 8.0 | 0.00 | 0.00 | 0.00 | 66 | 1014.2 |
| 20260904221009 | 84 | 223 | 2.0 | 5.0 | 0.00 | 0.00 | 0.00 | 68 | 1014.2 |
| 20260904220509 | 84 | 140 | 2.0 | 6.0 | 0.00 | 0.00 | 0.00 | 67 | 1014.3 |
| 20260904220020 | 84 | 128 | 1.0 | 6.0 | 0.00 | 0.00 | 0.00 | 69 | 1014.3 |
| 20260904215511 | 84 | 192 | 2.0 | 5.0 | 0.00 | 0.00 | 0.00 | 69 | 1014.2 |
| 20260904215013 | 84 | 151 | 3.0 | 6.0 | 0.00 | 0.00 | 0.00 | 69 | 1014.3 |
| 20260904214503 | 84 | 139 | 2.0 | 10.0 | 0.00 | 0.00 | 0.00 | 72 | 1014.3 |
| 20260904214003 | 83 | 171 | 3.0 | 10.0 | 0.00 | 0.00 | 0.00 | 71 | 1014.3 |
| 20260904213503 | 83 | 192 | 5.0 | 10.0 | 0.00 | 0.00 | 0.00 | 69 | 1014.1 |
| 20260904213015 | 83 | 144 | 4.0 | 11.0 | 0.00 | 0.00 | 0.00 | 71 | 1014.1 |
| 20260904212504 | 83 | 134 | 3.0 | 11.0 | 0.00 | 0.00 | 0.00 | 75 | 1014.3 |
| 20260904212006 | 83 | 150 | 4.0 | 8.0 | 0.00 | 0.00 | 0.00 | 75 | 1014.1 |